Home   Weather   Hamilton   Past weeks

Flag for Bermuda Past Weather in Hamilton, Bermuda — Yesterday and Last 2 Weeks

Now
79 °F

Sprinkles. Overcast.


Feels Like: 82 °F
Forecast: 79 / 83 °F
Wind: 6 mph from Southwest

Location: Bermuda

Current Time: Jul 27, 2017 at 4:08:19 am

Latest Report: Jul 27, 2017 at 2:55 am


Visibility: N/A

Pressure: 30.07 "Hg

Humidity: 84%

Dew Point: 73 °F

Location of HamiltonLocation

Past Weather in Hamilton — Graph

°F

Hamilton Temperature Yesterday

Maximum temperature yesterday: 86 °F (at 11:55 am)
Minimum temperature yesterday: 79 °F (at 7:55 am)
Average temperature yesterday: 82 °F

High & Low Weather Summary for the Past Weeks

 TemperatureHumidityPressure
High88 °F (Jul 23, 3:55 pm)89% (Jul 17, 6:36 am)30.30 "Hg (Jul 17, 6:36 am)
Low75 °F (Jul 17, 6:36 am)55% (Jul 15, 2:55 pm)30.07 "Hg (Jul 23, 1:55 am)
Average82 °F75%30.18 "Hg
* Reported Jul 12 2:55 am — Jul 27 2:55 am, Hamilton. Weather by CustomWeather, © 2017

Note: Actual official high and low records may vary slightly from our data, if they occured in-between our weather recording intervals... More about our weather records

Advertising

Hamilton Weather History for the Previous 24 Hours

Scroll right to see more
 ConditionsComfort  
Time TempWeatherWind HumidityBarometerVisibility
2:55 am
Thu, Jul 27
79 °FSprinkles. Overcast.6 mph84%30.07 "HgN/A
2:22 am79 °FSprinkles. Partly cloudy.5 mph84%30.07 "HgN/A
1:55 am79 °FThunderstorms. Overcast.2 mph79%30.07 "HgN/A
1:37 am79 °FThunderstorms. Overcast.5 mph79%30.07 "HgN/A
12:55 am79 °FSprinkles. Partly cloudy.8 mph84%30.09 "HgN/A
12:12 am79 °FPassing clouds.9 mph89%30.09 "HgN/A
11:55 pm
Wed, Jul 26
81 °FPartly cloudy.8 mph79%30.09 "HgN/A
11:04 pm81 °FThunderstorms. Passing clouds.9 mph84%30.09 "HgN/A
10:55 pm79 °FThunderstorms. Partly cloudy.8 mph84%30.09 "HgN/A
10:34 pm79 °FWarm.13 mph79%30.09 "HgN/A
9:55 pm82 °FPartly cloudy.12 mph79%30.09 "HgN/A
8:55 pm82 °FScattered showers. Partly cloudy.9 mph79%30.07 "HgN/A
7:55 pm82 °FBroken clouds.13 mph79%30.07 "HgN/A
6:55 pm84 °FBroken clouds.14 mph74%30.07 "HgN/A
5:55 pm84 °FScattered showers. Broken clouds.14 mph74%30.09 "HgN/A
4:55 pm84 °FScattered showers. Broken clouds.13 mph74%30.09 "HgN/A
3:55 pm84 °FScattered showers. Broken clouds.14 mph74%30.09 "HgN/A
2:55 pm84 °FScattered showers. Broken clouds.15 mph74%30.12 "HgN/A
1:55 pm84 °FBroken clouds.15 mph70%30.12 "HgN/A
12:55 pm86 °FBroken clouds.15 mph70%30.15 "HgN/A
11:55 am86 °FBroken clouds.13 mph70%30.12 "HgN/A
10:55 am84 °FBroken clouds.14 mph74%30.15 "HgN/A
9:55 am84 °FScattered showers. Broken clouds.14 mph74%30.18 "HgN/A
8:55 am84 °FScattered showers. Broken clouds.8 mph74%30.15 "HgN/A
7:55 am79 °FScattered showers. Broken clouds.13 mph84%30.15 "HgN/A
6:55 am81 °FScattered showers. Broken clouds.15 mph84%30.15 "HgN/A
5:55 am81 °FPassing clouds.13 mph79%30.12 "HgN/A
4:55 am81 °FSprinkles. Partly cloudy.16 mph84%30.12 "HgN/A
Weather by CustomWeather, © 2017

See weather overviewHow to use our weather pages